FW0810 Weather Reports


time (UTC)temp
C
wind
direction
speed
KPH
gust
KPH
rain 1hr
cm
rain 24hr
cm
rain mn
cm
humidity
%
barometer
mb
20260509221434 16 288 0.0 4.8 0.00 0.03 0.00 87 1018.3
20260509220938 16 220 0.0 1.6 0.00 0.03 0.00 87 1018.2
20260509220432 16 186 0.0 0.0 0.00 0.03 0.00 87 1018.1
20260509215932 16 182 0.0 0.0 0.00 0.03 0.03 87 1018.1
20260509215428 16 182 0.0 0.0 0.00 0.03 0.03 86 1018.0
20260509214929 16 182 0.0 0.0 0.00 0.03 0.03 86 1018.1
20260509214429 16 182 0.0 0.0 0.00 0.03 0.03 86 1018.0
20260509213427 16 182 0.0 0.0 0.00 0.03 0.03 87 1017.9
20260509212924 16 182 0.0 0.0 0.00 0.03 0.03 87 1017.9
20260509212424 16 182 0.0 0.0 0.00 0.03 0.03 86 1017.9
20260509211924 16 182 0.0 3.2 0.00 0.03 0.03 86 1017.7
20260509211425 16 181 0.0 3.2 0.00 0.03 0.03 86 1017.9
20260509210424 16 272 0.0 0.0 0.00 0.03 0.03 86 1018.0
20260509205924 16 272 0.0 0.0 0.00 0.03 0.03 85 1018.2
20260509204922 16 278 0.0 3.2 0.00 0.03 0.03 85 1018.1
20260509204422 16 278 0.0 3.2 0.00 0.03 0.03 85 1018.0
20260509203420 16 279 0.0 0.0 0.00 0.03 0.03 85 1018.1
20260509202920 16 280 0.0 3.2 0.00 0.03 0.03 85 1018.2
20260509201919 16 273 0.0 0.0 0.00 0.03 0.03 84 1018.3
20260509201419 17 271 1.6 6.4 0.00 0.03 0.03 84 1018.5
20260509200917 17 274 1.6 6.4 0.00 0.03 0.03 83 1018.4
20260509200416 17 278 1.6 6.4 0.00 0.03 0.03 82 1018.4
20260509195417 17 274 0.0 0.0 0.00 0.03 0.03 81 1018.4
20260509194916 17 275 0.0 0.0 0.00 0.03 0.03 81 1018.3
20260509193913 18 276 0.0 3.2 0.00 0.03 0.03 80 1018.3
20260509193410 18 280 0.0 4.8 0.00 0.03 0.03 80 1018.2
20260509192908 18 280 0.0 4.8 0.00 0.03 0.03 80 1018.2
20260509192409 18 274 0.0 0.0 0.00 0.03 0.03 80 1018.1
20260509191902 18 274 0.0 3.2 0.00 0.03 0.03 80 1018.0
20260509191358 18 275 0.0 3.2 0.00 0.03 0.03 80 1017.9
20260509190850 18 278 0.0 0.0 0.00 0.03 0.03 79 1017.9
20260509190344 18 278 0.0 0.0 0.00 0.03 0.03 79 1017.8
20260509185838 18 271 0.0 6.4 0.00 0.03 0.03 80 1017.8
20260509185334 18 257 0.0 6.4 0.00 0.03 0.03 80 1017.7
20260509184322 19 229 0.0 1.6 0.00 0.03 0.03 80 1017.6
20260509183814 19 101 0.0 0.0 0.00 0.03 0.03 79 1017.4
20260509183314 19 93 0.0 3.2 0.00 0.03 0.03 78 1017.4
20260509182812 20 92 0.0 3.2 0.00 0.03 0.03 76 1017.2
20260509182312 20 91 0.0 0.0 0.00 0.03 0.03 76 1017.1
20260509181812 20 91 0.0 0.0 0.00 0.03 0.03 76 1017.0
20260509181313 20 91 0.0 0.0 0.00 0.03 0.03 75 1016.8
20260509180825 20 91 0.0 0.0 0.00 0.03 0.03 74 1017.1
20260509180326 20 91 0.0 0.0 0.00 0.03 0.03 73 1017.1
20260509175810 21 91 0.0 0.0 0.00 0.03 0.03 73 1016.9
20260509174808 21 95 0.0 0.0 0.00 0.03 0.03 71 1017.0
20260509174307 22 98 0.0 0.0 0.00 0.03 0.03 69 1017.1
20260509173808 22 98 0.0 0.0 0.00 0.03 0.03 68 1017.0
20260509173311 22 103 0.0 0.0 0.00 0.03 0.03 67 1017.1
20260509172306 22 103 0.0 0.0 0.00 0.03 0.03 63 1017.2
20260509171804 22 103 0.0 0.0 0.00 0.03 0.03 63 1017.3
20260509170304 23 108 0.0 0.0 0.00 0.03 0.03 64 1017.3
20260509165804 23 108 0.0 0.0 0.00 0.05 0.03 64 1017.3
20260509165306 23 108 0.0 0.0 0.00 0.05 0.03 64 1017.2
20260509164806 23 108 0.0 0.0 0.00 0.05 0.03 61 1017.2
20260509164304 23 108 0.0 0.0 0.00 0.08 0.03 62 1017.1
20260509163804 23 108 0.0 0.0 0.00 0.10 0.03 61 1017.2
20260509163302 23 108 0.0 0.0 0.00 0.13 0.03 60 1017.2
20260509162800 24 108 0.0 0.0 0.00 0.13 0.03 57 1017.2
20260509162300 24 108 0.0 0.0 0.00 0.15 0.03 56 1017.2
20260509161802 24 108 0.0 0.0 0.00 0.15 0.03 55 1017.2
20260509161301 24 108 0.0 0.0 0.00 0.18 0.03 55 1017.2
20260509160802 24 108 0.0 6.4 0.00 0.20 0.03 52 1017.3
20260509160302 24 107 0.0 6.4 0.00 0.23 0.03 50 1017.3
20260509155800 24 126 0.0 3.2 0.00 0.23 0.03 52 1017.3
20260509154757 24 129 0.0 3.2 0.00 0.30 0.03 50 1017.3
20260509154257 24 129 0.0 3.2 0.00 0.33 0.03 49 1017.2
20260509153756 24 162 0.0 1.6 0.00 0.33 0.03 49 1017.4
20260509153256 25 162 0.0 1.6 0.00 0.36 0.03 48 1017.4
20260509152756 25 164 0.0 0.0 0.00 0.43 0.03 48 1017.4
20260509152257 25 167 0.0 4.8 0.00 0.48 0.03 47 1017.5
20260509151757 25 167 0.0 4.8 0.00 0.56 0.03 47 1017.5
20260509151255 25 96 0.0 0.0 0.00 0.64 0.03 48 1017.8
20260509150758 25 91 0.0 1.6 0.00 0.71 0.03 49 1017.9
20260509145755 25 91 0.0 4.8 0.00 0.84 0.03 49 1018.1
20260509145254 25 88 0.0 6.4 0.00 0.89 0.03 48 1018.1
20260509144250 25 136 1.6 9.7 0.00 1.02 0.03 45 1018.2
20260509143750 25 218 1.6 9.7 0.00 1.09 0.03 46 1018.2
20260509143250 25 183 1.6 9.7 0.00 1.14 0.03 45 1018.3
20260509142750 25 244 1.6 8.0 0.00 1.17 0.03 44 1018.4
20260509142249 25 176 1.6 8.0 0.00 1.22 0.03 44 1018.4
20260509141747 25 217 1.6 11.3 0.00 1.27 0.03 44 1018.4
20260509141246 25 289 1.6 11.3 0.00 1.30 0.03 44 1018.4
20260509140746 25 280 3.2 12.9 0.00 1.32 0.03 44 1018.4
20260509140244 25 274 4.8 12.9 0.00 1.32 0.03 46 1018.5
20260509135741 25 283 4.8 16.1 0.00 1.32 0.03 47 1018.5
20260509135242 25 283 4.8 16.1 0.00 1.32 0.03 48 1018.5
20260509134745 25 278 3.2 16.1 0.00 1.32 0.03 50 1018.7
20260509134237 25 146 1.6 11.3 0.00 1.32 0.03 52 1018.8
20260509133729 25 278 0.0 3.2 0.00 1.32 0.03 53 1018.9
20260509132717 25 356 1.6 8.0 0.00 1.32 0.03 52 1018.9
20260509132211 25 328 1.6 8.0 0.00 1.32 0.03 52 1019.0
20260509131705 25 314 1.6 11.3 0.00 1.32 0.03 53 1018.9
20260509131159 25 352 1.6 11.3 0.00 1.32 0.03 53 1019.0
20260509130657 25 200 0.0 4.8 0.00 1.32 0.03 52 1018.9
20260509130201 25 174 0.0 8.0 0.00 1.32 0.03 52 1019.0
20260509125654 25 195 0.0 8.0 0.00 1.32 0.03 52 1019.0
20260509125153 25 206 0.0 4.8 0.00 1.32 0.03 51 1018.9
20260509124653 25 260 0.0 0.0 0.00 1.32 0.03 52 1019.0
20260509123647 24 257 1.6 4.8 0.00 1.32 0.03 53 1019.0
20260509123146 24 253 1.6 6.4 0.03 1.32 0.03 51 1019.1
20260509122645 24 193 0.0 6.4 0.03 1.32 0.03 51 1019.1
20260509122146 24 244 0.0 4.8 0.03 1.32 0.03 51 1019.1
20260509121644 24 226 0.0 3.2 0.03 1.32 0.03 52 1019.2
20260509121145 24 205 0.0 6.4 0.03 1.32 0.03 53 1019.2
20260509120642 24 266 0.0 6.4 0.03 1.32 0.03 53 1019.3
20260509115641 23 96 0.0 1.6 0.03 1.32 0.03 53 1019.4
20260509115137 23 95 0.0 6.4 0.03 1.32 0.03 52 1019.6
20260509114636 23 94 1.6 6.4 0.03 1.32 0.03 53 1019.6
20260509114134 23 105 1.6 6.4 0.03 1.32 0.03 51 1019.6
20260509113633 23 113 0.0 4.8 0.03 1.32 0.03 55 1019.7
20260509113134 23 103 0.0 0.0 0.00 1.30 0.00 52 1019.6
20260509112633 23 26 0.0 0.0 0.00 1.30 0.00 53 1019.7
20260509111623 22 127 0.0 4.8 0.00 1.30 0.00 60 1019.8
20260509111124 21 127 0.0 4.8 0.00 1.30 0.00 60 1019.8
20260509110623 21 134 0.0 4.8 0.00 1.30 0.00 67 1019.8
20260509110119 21 134 0.0 4.8 0.00 1.30 0.00 66 1019.8
20260509105115 21 110 0.0 3.2 0.00 1.30 0.00 72 1019.8
20260509104615 20 117 0.0 6.4 0.00 1.30 0.00 73 1019.8
20260509104112 20 117 0.0 6.4 0.00 1.30 0.00 74 1019.9
20260509103611 20 108 0.0 4.8 0.00 1.30 0.00 76 1019.9
20260509103112 20 111 0.0 4.8 0.00 1.30 0.00 80 1020.0
20260509102610 19 114 0.0 4.8 0.00 1.30 0.00 85 1020.0
20260509102108 18 115 0.0 4.8 0.00 1.30 0.00 87 1020.0
20260509101607 18 124 0.0 4.8 0.00 1.30 0.00 89 1020.0
20260509101107 18 148 0.0 4.8 0.00 1.30 0.00 92 1020.3
20260509100105 17 96 0.0 3.2 0.00 1.30 0.00 94 1020.4
20260509095606 17 96 0.0 4.8 0.00 1.30 0.00 94 1020.4
20260509095107 16 88 0.0 6.4 0.00 1.30 0.00 94 1020.3
20260509094603 16 88 0.0 6.4 0.00 1.30 0.00 95 1020.3
20260509094103 16 110 0.0 8.0 0.00 1.30 0.00 96 1020.5
20260509093558 16 128 0.0 8.0 0.00 1.30 0.00 96 1020.5
20260509093055 16 108 0.0 0.0 0.00 1.30 0.00 96 1020.5
20260509092546 15 108 0.0 4.8 0.00 1.30 0.00 96 1020.7
20260509092040 15 109 0.0 4.8 0.00 1.30 0.00 96 1020.7
20260509091533 15 111 0.0 3.2 0.00 1.30 0.00 96 1020.8
20260509091029 15 111 0.0 3.2 0.00 1.30 0.00 96 1020.8
20260509090523 15 96 0.0 3.2 0.00 1.30 0.00 97 1020.9
20260509085511 14 96 0.0 0.0 0.00 1.30 0.00 96 1021.0
20260509085016 14 96 0.0 0.0 0.00 1.30 0.00 96 1021.0
20260509083952 14 96 0.0 3.2 0.00 1.30 0.00 96 1020.8
20260509083450 14 96 0.0 0.0 0.00 1.30 0.00 96 1020.9
20260509082951 14 96 0.0 3.2 0.00 1.30 0.00 96 1020.8
20260509081947 14 96 0.0 8.0 0.00 1.30 0.00 96 1020.7
20260509081447 14 124 0.0 8.0 0.00 1.30 0.00 96 1020.9
20260509080950 14 97 0.0 3.2 0.00 1.30 0.00 96 1020.9
20260509080445 13 97 0.0 1.6 0.00 1.30 0.00 96 1021.0
20260509074444 13 96 1.6 6.4 0.00 1.30 0.00 96 1021.0
20260509073940 13 90 0.0 4.8 0.00 1.30 0.00 96 1021.0
20260509073443 13 105 0.0 3.2 0.00 1.30 0.00 96 1021.1
20260509072940 13 101 0.0 3.2 0.00 1.30 0.00 96 1021.1
20260509072438 13 103 0.0 4.8 0.00 1.30 0.00 96 1020.9
20260509071935 13 106 0.0 4.8 0.00 1.30 0.00 96 1021.0
20260509071435 13 105 0.0 4.8 0.00 1.30 0.00 96 1021.0
20260509070935 13 105 1.6 6.4 0.00 1.30 0.00 96 1021.0
20260509070435 13 110 3.2 6.4 0.00 1.30 0.00 96 1021.0
20260509065933 13 89 3.2 6.4 0.00 1.30 0.00 96 1021.1
20260509065436 13 103 1.6 6.4 0.00 1.30 0.00 96 1021.2
20260509064933 13 88 0.0 6.4 0.00 1.30 0.00 96 1021.1
20260509063433 13 118 0.0 0.0 0.00 1.30 0.00 96 1021.2
20260509062933 13 118 0.0 0.0 0.00 1.30 0.00 96 1021.3
20260509061433 13 146 0.0 1.6 0.00 1.30 0.00 96 1021.2
20260509060435 12 147 0.0 1.6 0.00 1.30 0.00 96 1021.3
20260509055931 12 147 0.0 1.6 0.00 1.30 0.00 95 1021.2
20260509055429 -17 0.0 0.0 0.00 1.30 0.00 1021.2
20260509054928 -17 0.0 0.0 0.00 1.30 0.00 1021.1
20260509053927 -17 0.0 0.0 0.00 1.30 0.00 1021.0
20260509053426 -17 0.0 0.0 0.00 1.30 0.00 1021.0
20260509052925 -17 0.0 0.0 0.00 1.30 0.00 1021.1
20260509052413 -17 0.0 0.0 0.00 1.30 0.00 1021.1
20260509051828 -17 0.0 0.0 0.00 1.30 0.00 1021.0
20260509051325 -17 0.0 0.0 0.00 1.30 0.00 1020.9
20260509050731 -17 0.0 0.0 0.00 1.30 0.00 1020.9
20260509050211 -17 0.0 0.0 0.00 1.30 0.00 1020.9
20260509045628 -17 0.0 0.0 0.00 1.30 0.00 1020.9
20260509045127 -17 0.0 0.0 0.00 1.30 0.00 1020.9
20260509044031 -17 0.0 0.0 0.00 1.30 0.00 1020.6
20260509043522 -17 0.0 0.0 0.00 1.30 0.00 1020.6
20260509042925 -17 0.0 0.0 0.00 1.30 0.00 1020.6
20260509041833 -17 0.0 0.0 0.00 1.30 0.00 1020.5
20260509041329 -17 0.0 0.0 0.00 1.30 0.00 1020.5
20260509040830 -17 0.0 0.0 0.00 1.30 0.00 1020.5
20260509040327 -17 0.0 0.0 0.00 1.30 0.00 1020.6
20260509035734 -17 0.0 0.0 0.00 1.30 0.00 1020.2
20260509034724 -17 0.0 0.0 0.00 1.30 0.00 1020.2
20260509034130 -17 0.0 0.0 0.00 1.30 0.00 1020.3
20260509033626 -17 0.0 0.0 0.00 1.30 0.00 1020.0
20260509033036 -17 0.0 0.0 0.00 1.30 0.00 1020.2
20260509032531 -17 0.0 0.0 0.00 1.30 0.00 1020.2
20260509032025 -17 0.0 0.0 0.00 1.30 0.00 1020.0
20260509030927 -17 0.0 0.0 0.00 1.30 0.00 1020.0
20260509030427 -17 0.0 0.0 0.00 1.30 0.00 1020.0
20260509025925 -17 0.0 0.0 0.00 1.30 0.00 1020.0
20260509025423 -17 0.0 0.0 0.00 1.30 0.00 1020.0
20260509024922 -17 0.0 0.0 0.00 1.30 0.00 1020.0
20260509024333 -17 0.0 0.0 0.00 1.30 0.00 1019.9
20260509023827 -17 0.0 0.0 0.00 1.30 0.00 1019.9
20260509023317 -17 0.0 0.0 0.00 1.30 0.00 1020.0
20260509022723 -17 0.0 0.0 0.00 1.30 0.00 1019.9
20260509022129 -17 0.0 0.0 0.00 1.30 0.00 1019.8
20260509021027 -17 0.0 0.0 0.00 1.30 0.00 1020.0
20260509020526 -17 0.0 0.0 0.00 1.30 0.00 1019.8
20260509015934 -17 0.0 0.0 0.00 1.30 0.00 1020.0
20260509015432 -17 0.0 0.0 0.00 1.30 0.00 1019.8
20260509014837 -17 0.0 0.0 0.00 1.30 0.00 1019.8
20260509013725 -17 0.0 0.0 0.00 1.30 0.00 1019.7
20260509013222 -17 0.0 0.0 0.00 1.30 0.00 1019.7
20260509012636 -17 0.0 0.0 0.00 1.30 0.00 1019.5
20260509012134 -17 0.0 0.0 0.00 1.30 0.00 1019.5
20260509011630 -17 0.0 0.0 0.00 1.30 0.00 1019.6
20260509011127 -17 0.0 0.0 0.00 1.30 0.00 1019.4
20260509010627 -17 0.0 0.0 0.00 1.30 0.00 1019.3
20260509010029 -17 0.0 0.0 0.00 1.30 0.00 1019.5
20260509005020 -17 0.0 0.0 0.00 1.30 0.00 1019.5
20260509003837 -17 0.0 0.0 0.00 1.30 0.00 1019.3
20260509003334 -17 0.0 0.0 0.00 1.30 0.00 1019.3
20260509002830 -17 0.0 0.0 0.00 1.30 0.00 1019.3
20260509002328 -17 0.0 0.0 0.00 1.30 0.00 1019.4
20260509001826 -17 0.0 0.0 0.00 1.30 0.00 1019.3
20260509001321 -17 0.0 0.0 0.00 1.30 0.00 1019.3
20260509000729 -17 0.0 0.0 0.00 1.30 0.00 1019.3
20260509000226 -17 0.0 0.0 0.00 1.30 0.00 1019.4
20260508235126 -17 0.0 0.0 0.00 1.30 0.00 1019.3
20260508234535 -17 0.0 0.0 0.00 1.30 0.00 1019.4
20260508234029 -17 0.0 0.0 0.00 1.30 0.00 1019.5
20260508233526 -17 0.0 0.0 0.00 1.30 0.00 1019.5
20260508232934 -17 0.0 0.0 0.00 1.30 0.00 1019.5
20260508231329 -17 0.0 0.0 0.00 1.30 0.00 1019.5
20260508230818 -17 0.0 0.0 0.00 1.30 0.00 1019.4
20260508230224 -17 0.0 0.0 0.00 1.30 0.00 1019.4
20260508225636 -17 0.0 0.0 0.00 1.30 0.00 1019.5
20260508225132 -17 0.0 0.0 0.00 1.30 0.00 1019.6
20260508224628 -17 0.0 0.0 0.00 1.30 0.00 1019.4
20260508224126 -17 0.0 0.0 0.00 1.30 0.00 1019.5
20260508223625 -17 0.0 0.0 0.00 1.30 0.00 1019.4
20260508223034 -17 0.0 0.0 0.00 1.30 0.00 1019.5
20260508222530 -17 0.0 0.0 0.00 1.30 0.00 1019.5